RH
92 91 91 90 90 89 88 86 85 84 81 79 79 79 79 79 74 44 43 43 43 59 48 15 15 21 23 19 16 18 32 33 28 23 19 15 15 14 14 15 16 18 19 17 17
94 93 93 92 93 92 91 89 87 85 83 82 82 79 79 78 57 49 52 58 59 58 17 17 20 21 26 24 20 22 35 27 21 21 20 17 18 15 15 15 18 18 17 16 14
85 89 94 94 94 94 93 92 90 87 83 82 82 78 77 71 53 28 60 60 55 49 21 22 22 19 22 25 24 25 26 22 20 18 19 19 16 15 16 20 17 18 18 16 18
82 85 88 90 94 95 94 93 92 89 83 80 75 72 74 61 59 33 62 62 57 38 29 32 27 26 28 26 23 27 19 18 18 17 17 17 17 16 16 18 15 14 15 17 16
89 89 86 84 88 94 94 95 95 91 84 78 71 68 60 64 54 38 64 58 40 28 25 25 27 28 31 26 25 26 24 20 19 18 17 15 18 17 15 13 13 12 12 15 18
86 89 89 89 89 91 94 96 95 92 86 74 68 68 62 82 38 33 40 35 25 25 25 25 26 24 27 26 28 23 21 20 19 19 18 18 17 18 17 14 15 13 14 15 16
87 88 88 88 90 89 90 95 95 93 85 72 66 54 61 71 41 39 34 33 26 28 30 26 25 28 28 30 23 23 28 24 23 21 20 17 21 22 17 16 15 15 16 15 19
87 88 89 88 89 90 88 93 96 91 80 68 66 55 75 42 40 43 42 42 31 22 23 23 25 30 33 28 27 29 30 36 25 22 20 23 28 21 18 17 17 16 15 17 19
86 87 89 88 89 89 91 93 94 84 75 69 71 69 81 41 47 39 39 41 30 32 25 19 26 34 33 41 46 39 49 39 31 23 23 24 25 18 17 17 18 18 23 18 17
84 85 86 88 89 95 95 90 86 81 75 58 54 70 56 40 31 31 33 30 31 32 31 29 35 40 43 51 62 49 43 38 33 26 21 22 22 19 18 18 20 20 18 18 20
83 84 86 87 89 92 93 95 95 97 75 76 63 55 36 29 25 30 21 25 26 32 38 33 47 54 41 36 35 33 34 35 29 22 24 24 21 19 17 19 19 23 21 19 40
84 85 85 87 89 91 82 89 74 64 87 69 62 52 37 33 42 33 26 35 33 38 34 35 42 36 32 32 34 34 35 34 25 20 21 23 22 18 17 16 16 17 18 19 45
85 86 86 88 84 97 94 81 61 55 93 58 46 56 52 42 46 42 33 34 41 44 42 42 34 26 28 30 32 32 33 30 28 27 30 31 33 24 18 15 15 16 15 21 42
85 86 87 88 95 91 95 79 64 68 99 60 39 36 34 38 44 33 31 35 42 45 43 46 34 33 32 32 27 34 29 30 32 50 60 43 62 38 28 22 19 16 40 41 44
83 86 87 88 95 88 76 77 63 78 85 22 25 22 27 38 31 28 24 35 47 46 45 46 42 42 42 37 28 35 39 30 28 42 55 45 62 40 27 25 28 48 51 52 48
84 85 87 91 98 81 69 64 83 96 92 36 26 33 34 35 34 28 29 33 33 43 42 42 31 34 35 30 35 36 38 38 38 52 77 50 53 47 36 33 64 62 50 48 45
85 85 89 86 93 66 60 92 99 99 30 23 24 28 34 35 34 32 36 40 43 49 52 40 39 33 31 39 47 53 51 74 82 77 61 37 45 39 78 71 66 60 49 48 45
86 87 88 85 86 61 87 99 100 52 35 19 22 22 30 29 29 28 38 44 34 33 44 50 64 40 44 45 57 52 46 88 85 82 72 50 66 96 90 82 83 51 41 40 43
86 96 98 98 80 73 95 98 80 48 28 32 29 34 31 26 28 30 35 38 31 29 39 51 53 35 32 33 46 48 52 43 72 72 81 63 78 90 89 82 84 84 72 67 60
98 95 98 96 78 94 98 85 68 41 32 35 44 34 36 34 37 34 35 27 29 26 32 42 52 52 46 30 32 36 31 69 92 94 83 58 54 96 96 93 84 76 59 46 48
96 99 95 97 88 99 99 90 65 47 39 44 45 43 44 44 45 62 70 55 39 31 33 51 59 72 55 54 44 40 44 44 66 78 92 90 73 76 89 87 68 59 47 51 54
95 99 97 95 100 100 98 79 61 53 45 48 49 48 58 50 50 60 73 81 54 48 56 65 77 94 73 45 40 39 44 43 74 61 68 74 68 70 75 68 60 48 50 52 53
100 100 96 100 99 98 84 76 66 62 60 52 54 48 57 51 64 54 56 49 50 56 66 61 89 84 66 57 55 57 40 41 54 60 68 85 78 60 52 49 54 55 54 54 56
100 99 100 100 97 98 85 82 78 65 63 57 56 52 49 53 53 58 51 52 52 52 59 60 80 75 69 67 62 60 45 37 51 84 60 55 48 41 63 57 55 56 64 64 64
99 98 88 98 97 99 91 84 75 78 59 59 68 67 60 67 57 60 54 58 49 56 56 60 69 61 49 42 42 61 49 36 40 47 63 50 59 50 55 65 64 58 61 66 70
100 100 97 91 77 97 99 98 77 68 68 87 76 64 68 76 69 84 57 65 66 61 61 60 81 67 64 42 39 39 29 27 29 33 33 29 47 75 68 68 70 68 70 75 75
98 95 97 87 94 97 91 88 86 70 71 63 70 73 74 70 60 54 46 55 58 66 75 69 77 75 81 49 45 53 44 40 31 52 55 87 86 78 86 87 82 83 80 82 83
Wind_Speed
9 9 9 9 10 9 9 9 8 8 10 13 15 16 21 21 26 5 6 4 3 2 2 6 4 9 5 4 4 3 1 6 6 6 11 9 9 5 4 5 2 1 3 4 7
8 8 10 10 10 10 9 10 9 8 9 11 14 16 20 21 9 9 3 4 3 1 1 3 7 5 3 4 4 5 4 8 9 9 12 14 6 7 6 7 4 4 5 5 7
9 8 9 9 10 10 10 11 9 8 8 10 12 15 20 19 6 2 3 4 5 1 2 3 9 7 5 4 7 7 11 12 16 19 13 8 14 6 8 5 7 9 4 6 4
7 8 9 9 9 10 10 10 9 9 7 9 12 15 20 5 7 3 4 3 4 2 4 6 7 4 3 6 6 8 14 13 14 15 13 18 8 8 7 8 8 9 7 2 4
7 7 7 9 9 10 11 10 10 8 6 6 9 13 9 4 13 6 8 6 2 1 5 7 7 5 6 6 8 10 8 11 12 11 10 10 9 13 15 11 10 11 9 7 4
7 8 8 8 8 8 9 10 11 9 5 4 7 11 3 13 10 14 9 7 5 6 6 7 6 8 8 7 7 10 17 18 18 16 13 18 17 8 14 9 10 11 12 10 8
7 9 9 9 10 9 9 9 10 9 9 6 5 5 6 21 9 15 9 12 7 9 9 8 6 4 7 9 11 9 14 18 8 8 14 16 28 20 17 13 20 15 11 10 10
6 8 9 10 10 11 11 8 9 10 8 4 5 4 10 11 12 20 18 16 10 8 7 8 6 7 4 7 10 11 9 12 6 15 18 9 31 8 11 13 16 14 15 8 9
6 8 9 10 10 11 9 5 11 10 5 4 3 4 13 14 7 14 14 14 10 12 7 9 6 7 5 6 6 7 7 11 16 15 20 7 23 19 15 9 8 5 1 5 7
7 8 10 9 9 5 13 9 8 5 4 6 6 4 9 6 7 4 9 10 8 6 5 7 4 2 1 4 7 7 8 10 16 8 19 21 18 9 10 9 8 9 7 6 5
8 9 9 8 4 15 10 4 1 3 6 12 11 8 2 6 8 7 7 9 8 7 8 8 6 7 13 14 15 13 16 19 17 14 11 14 21 14 13 9 9 7 8 9 14
8 8 9 8 5 14 3 3 5 3 12 20 23 23 19 13 9 17 12 5 6 8 7 8 17 12 14 14 16 16 18 20 19 18 15 18 19 14 14 11 9 9 9 11 16
7 8 8 8 7 7 4 5 7 8 6 9 22 13 13 17 16 22 11 14 13 10 11 18 9 12 17 19 19 19 19 18 20 10 10 12 13 12 13 19 15 10 13 4 19
7 8 8 8 2 5 4 9 8 2 5 8 8 8 11 12 10 24 21 15 8 17 16 18 15 17 19 19 15 21 12 17 16 11 6 4 10 15 19 19 22 18 12 19 17
7 8 8 6 3 4 4 6 5 1 5 5 3 5 10 16 3 4 19 10 20 18 7 26 20 18 21 22 17 20 10 13 12 11 9 21 1 11 11 17 12 19 17 14 18
9 9 7 5 4 2 9 8 2 3 13 6 8 7 6 13 6 3 5 3 13 16 13 21 17 15 19 20 7 9 5 5 6 2 5 17 3 20 9 8 14 18 12 15 15
10 11 5 3 3 10 9 3 3 7 7 6 8 9 12 11 12 10 10 8 6 5 7 14 18 20 17 15 3 3 3 4 5 1 12 4 10 9 6 15 8 20 17 14 15
11 11 8 8 10 16 6 3 8 12 16 6 1 8 8 10 11 11 9 11 12 12 6 7 9 2 7 5 7 6 6 6 4 3 5 6 6 3 15 18 21 16 16 15 15
11 3 4 7 14 12 10 10 11 9 7 13 20 19 16 16 7 7 9 12 13 10 10 2 4 4 4 2 1 1 6 7 2 5 6 5 3 6 11 12 16 14 14 11 11
1 4 4 2 18 10 9 17 16 12 15 19 14 8 14 11 9 8 7 4 6 9 6 7 7 3 3 4 3 4 0 4 2 3 5 5 6 2 5 8 11 11 8 9 13
2 4 1 4 11 9 11 13 18 17 17 9 18 18 17 11 7 3 1 7 10 5 8 4 5 0 3 3 4 2 2 2 5 5 3 3 3 2 13 11 7 9 9 11 12
5 6 1 10 8 3 7 12 10 17 13 21 12 16 14 9 7 6 8 9 17 2 4 1 5 3 7 4 4 4 6 10 6 6 4 3 5 4 7 5 8 10 11 13 13
4 3 1 2 8 6 11 15 12 13 10 12 12 15 12 3 4 2 5 4 0 3 5 5 1 1 5 3 2 5 4 5 2 4 4 2 4 3 5 5 13 11 14 13 14
2 4 2 1 1 7 10 17 20 8 16 16 15 9 7 5 3 3 6 2 1 5 8 6 4 6 6 1 1 3 7 8 5 4 4 9 10 6 2 9 9 10 13 13 13
4 6 6 7 14 6 10 6 22 16 13 5 6 9 3 5 8 8 4 3 3 5 3 5 3 3 6 9 8 8 15 8 7 7 7 10 7 8 6 12 9 12 13 13 13
4 4 3 2 12 15 7 9 19 18 12 8 11 10 8 7 10 5 3 4 4 2 5 2 2 3 2 7 10 11 10 11 7 5 7 8 2 14 13 14 14 13 12 11 10
3 3 3 4 9 11 17 15 15 13 10 14 15 6 7 9 3 2 5 8 8 8 7 5 4 3 3 2 5 5 4 3 6 6 3 4 3 10 12 14 11 11 10 11 11
Wind_Direction
253 255 256 258 263 264 269 275 282 293 308 318 326 331 322 325 317 303 257 229 181 117 291 286 284 240 255 248 290 343 308 246 266 258 267 311 360 334 5 5 44 132 332 253 167
270 258 260 257 254 257 262 265 270 280 299 312 322 327 322 329 310 279 246 147 135 126 268 300 298 266 238 238 248 152 199 248 255 280 296 315 331 313 4 328 316 306 299 293 342
347 343 304 262 258 252 252 255 257 264 290 307 322 326 321 323 300 203 189 166 109 115 281 291 291 306 286 245 244 235 241 250 273 285 300 304 310 307 316 296 261 272 271 318 60
345 341 339 332 299 273 260 256 246 249 269 300 320 327 318 284 303 122 198 182 110 329 282 286 281 271 277 262 272 262 259 251 255 253 275 284 286 299 282 254 271 288 282 219 300
337 332 329 323 322 305 280 250 245 228 239 283 315 330 344 266 250 243 187 199 208 209 249 277 296 282 248 267 311 284 282 297 305 305 285 280 269 268 274 269 279 288 290 277 234
348 328 318 312 309 312 308 260 225 214 210 262 304 323 229 263 259 290 183 180 222 205 251 255 261 290 289 279 283 292 296 292 296 294 289 298 285 290 272 268 263 257 257 240 221
331 328 328 322 313 307 299 297 228 189 183 224 285 298 248 245 268 285 265 278 209 211 254 265 286 294 318 313 278 295 308 302 274 276 281 278 275 258 261 255 262 255 247 224 218
308 313 313 318 316 307 302 302 210 167 193 222 287 299 250 256 254 259 266 269 250 239 257 287 304 294 271 287 299 297 292 285 172 257 259 200 266 259 238 243 250 258 237 215 216
309 314 313 311 316 314 315 291 144 157 195 233 283 198 263 293 220 246 232 251 265 236 218 249 258 232 279 275 308 231 254 251 279 256 267 237 278 290 219 237 244 243 194 232 231
298 310 309 311 320 43 101 116 141 132 233 235 264 336 260 236 209 233 182 207 231 272 237 213 247 189 313 170 233 234 251 278 290 304 306 302 292 305 279 237 243 224 212 247 240
302 306 309 303 343 125 119 105 297 266 235 204 195 226 222 286 341 183 195 187 188 235 225 210 196 199 218 227 233 255 264 272 286 298 290 284 297 290 290 270 254 232 218 218 115
301 305 303 300 304 180 195 206 267 311 286 232 250 243 247 269 272 270 305 205 191 227 241 267 241 217 239 251 261 269 276 280 285 289 285 287 284 290 296 273 228 238 227 215 127
296 301 308 298 291 176 214 214 338 330 269 260 227 233 230 220 242 244 240 251 236 214 235 240 252 233 243 254 255 256 256 266 268 295 325 336 307 304 298 283 276 249 248 168 130
291 297 300 300 187 149 212 229 265 319 295 276 212 246 211 204 268 230 224 230 229 244 227 247 258 262 275 276 288 287 295 302 315 355 303 57 293 297 279 285 292 295 96 105 95
282 286 289 211 7 176 182 164 231 52 331 239 159 147 143 171 242 62 209 195 229 242 234 261 262 262 268 265 272 280 344 338 317 283 292 271 30 269 289 295 340 87 86 74 93
276 281 291 259 184 251 159 147 102 84 244 274 145 170 151 199 238 317 30 199 220 235 239 258 260 256 257 255 262 306 300 283 294 204 267 270 200 273 259 278 102 93 72 79 75
274 280 264 251 215 161 150 122 126 208 240 227 217 180 190 197 210 214 229 238 205 223 235 262 258 254 252 255 14 320 354 344 324 154 252 340 254 268 59 41 102 117 105 84 75
280 292 239 212 191 157 153 147 211 222 224 280 336 267 246 200 205 217 209 227 240 224 237 266 302 290 4 222 170 216 175 156 254 279 305 320 270 37 17 65 59 11 60 76 74
299 258 246 177 161 166 169 199 216 213 237 223 260 280 273 279 190 205 228 225 212 207 226 200 263 37 10 169 179 338 233 178 212 301 283 230 112 124 74 59 85 51 38 39 65
296 306 238 295 160 167 187 222 234 233 274 293 278 247 274 259 266 261 215 196 256 211 174 214 255 58 318 26 326 170 163 86 68 241 254 277 268 137 131 105 117 144 132 94 74
258 261 170 232 159 191 205 228 237 244 260 259 264 267 282 262 228 134 234 320 326 322 78 86 113 315 92 199 193 253 231 237 154 157 224 320 300 345 146 173 156 152 121 89 75
199 228 35 158 191 243 196 216 232 246 238 244 264 268 270 294 265 166 193 128 302 6 45 341 124 192 229 261 12 321 224 224 191 239 218 187 283 128 130 190 177 118 103 85 74
177 149 279 224 199 212 220 237 233 257 256 247 251 248 256 238 318 305 91 135 325 76 143 172 66 195 337 257 283 243 237 250 174 141 182 255 243 123 158 155 41 74 71 71 63
230 159 218 224 202 211 209 226 234 220 253 266 269 282 227 258 245 251 129 104 52 92 88 91 156 183 230 131 35 310 247 255 223 167 217 232 267 252 165 116 119 99 85 70 58
206 206 186 184 213 187 209 234 226 231 227 262 248 236 207 237 246 231 129 108 40 137 105 121 159 214 283 275 259 250 274 256 243 226 210 253 237 251 98 100 98 90 86 70 53
187 205 191 244 195 196 213 209 222 224 213 213 216 211 202 227 242 234 184 132 168 142 153 164 151 75 286 294 286 283 279 284 278 259 280 279 293 75 72 80 70 76 77 70 59
167 272 211 186 174 179 214 223 220 218 214 225 207 212 207 219 281 347 232 174 165 161 177 141 125 124 252 357 1 304 241 280 264 50 20 70 38 97 77 72 70 76 72 65 58